Погода в Тюбингене

Германия     48°30′54″N   9°03′38″E
темп.,
°C
ветер,
м/с
пор.,
м/с
влажн.,
%
обл.,
%
осадки,
мм/ч
давл.,
гПа
погр.,
м
11 мая, вт
вт1123:00+11св1597100 0.1 1010312
02:00+10с1497100 0.1 1010229
05:00+10ссз1396100 0.0 1009200
08:00+11всв2394100 0.1 1009322
11:00+12ссз2493100 0.1 1008408
14:00+11з3798100 3.0 1009401
17:00+11зюз3995100 1.9 1009475
20:00+11юз3694100 2.7 1009209
12 мая, ср
ср1223:00+10юз3896100 0.9 1011460
02:00+9зюз41095100 1.6 1012616
05:00+9з51193100 0.6 1013723
08:00+8зюз4892100 0.6 1014567
11:00+12зсз3470100 0.1 10131207
14:00+13ссв226199 0.3 10121219
17:00+12ссв337294 0.3 1011696
20:00+11св1180100 0.6 101115
13 мая, чт
чт1323:00+7ю019058 0.0 101211
02:00+6юз229267 0.0 101115
05:00+5ююз229399 0.0 101015
08:00+9юз238694 0.0 1010184
11:00+13зсз246471 0.4 10081176
14:00+14зсз4567100 1.6 10071332
17:00+10з6890100 1.5 1008680
20:00+8юз4790100 1.7 1009375
14 мая, пт
пт1423:00+6ююз2490100 0.0 101093
02:00+5ююз2390100 0.0 101049
05:00+4ююз239397 0.0 101051
08:00+7юз3684100 0.0 1010236
11:00+12з456896 0.3 10091278
14:00+13сз236774 1.6 10091161
17:00+13ссз237462 2.3 1009869
20:00+10ссз118476 3.6 100912
15 мая, сб
сб1523:00+6юз229221 0.1 101213
02:00+5ююз22946 0.2 101215
05:00+4ююз229310 0.0 101315
08:00+8юз258841 0.0 1012237
11:00+11юз4672100 0.1 10121078
14:00+13зюз565989 0.4 10101695
17:00+14з4657100 0.1 10081512
20:00+9зюз51189100 0.9 1009406